www.pogodaiklimat.ru

Погода и климат >> Архив погоды >> Украина >> Киев


АРХИВ ПОГОДЫ в Киеве

Время (UTC), дата Ветер
(напр.,м/с)
 
Видим.   Явления Облачность Т
(С)
Тd
(С)
f
(%)
Тe
(С)
Тes
(С)
Комфортность P
(гПа)
Po
(гПа)
Тmin
(С)
Tmax
(С)
R
(мм)
R24
(мм)
S
(см)
09 12.03 З 5 20 км 8/3 600 м
[Sc Cc]
+4.6 -6.2 45 +1 +3 по сезону 1013.2 992.6
12 12.03 СЗ 3 20 км 9/6 600 м
[Cb cap Ac lent Ci sp]
+5.3 -5.9 44 +3 +4 по сезону 1012.6 992.1
15 12.03 СЗ 3 20 км 8/5 600 м
[Cb cap Ac cast Ci sp]
+3.4 -1.9 68 -0 -0 по сезону 1013.6 992.9
18 12.03 С 5 20 км 9/5 600 м
[Cb cap Ac As]
+1.9 -4.5 63 -3 -3 по сезону 1015.5 994.7 +7.4
21 12.03 СЗ 3 20 км 3/0
[Ci sp]
-0.2 -7.4 58 -4 -4 по сезону 1016.7 995.7
00 13.03 СЗ 3 20 км 9/0
[Ac und]
-1.0 -7.5 61 -5 -5 по сезону 1017.3 996.2
03 13.03 СЗ 2 20 км ясно -1.9 -7.2 67 -5 -5 по сезону 1017.4 996.2
06 13.03 СЗ 2 20 км ясно -1.2 -6.6 67 -5 -3 по сезону 1017.8 996.7 -2.5
09 13.03 З 3 20 км ясно +3.4 -9.8 37 0 +7 по сезону 1017.5 996.7
12 13.03 З 3 20 км ясно +5.4 -10.7 30 +3 +8 по сезону 1016.5 995.9
15 13.03 З 3 20 км ясно +5.7 -9.5 33 +3 +4 по сезону 1015.5 994.9
18 13.03 ЮЗ 3 20 км ясно +2.2 -8.7 44 -1 -1 по сезону 1016.1 995.3 +6.4
21 13.03 Ю 3 20 км 10/0
[Ac und]
+1.4 -7.1 53 -2 -2 по сезону 1016.1 995.2
00 14.03 Ю 3 20 км 10/0
[Ac und]
+2.2 -7.4 49 -1 -1 по сезону 1015.5 994.7
03 14.03 Ю 2 20 км 10/0
[Ac und]
+1.2 -6.7 56 -2 -2 по сезону 1014.8 993.9
06 14.03 Ю 3 20 км 9/0
[Cs]
+1.8 -5.8 57 -2 -1 по сезону 1014.5 993.7 +0.7
09 14.03 ЮЗ 4 20 км 10/0
[As op]
+5.9 -4.2 48 +3 +4 тепло 1013.6 993.1
12 14.03 Ю 4 20 км 10/0
[As op]
+6.4 -3.8 48 +3 +4 по сезону 1012.1 991.7
15 14.03 ЮЗ 4 20 км 10/0
[Ac As]
+6.3 -5.5 43 +3 +3 по сезону 1011.0 990.6
18 14.03 Ю 3 20 км 4/0
[Cs]
+3.8 -5.7 50 +1 +1 по сезону 1010.9 990.3 +7.3
21 14.03 Ю 3 20 км 8/0
[Ac As]
+3.4 -7.2 46 0 0 по сезону 1010.5 989.9
00 15.03 Ю 2 20 км 10/0
[Ac As]
+2.8 -6.4 51 0 0 по сезону 1010.1 989.4
03 15.03 Ю 2 20 км 10/0
[Ac As]
+0.5 -4.1 71 -3 -3 по сезону 1009.4 988.6
06 15.03 Ю 2 20 км 6/0
[Ac cast]
+1.0 -4.2 68 -2 -1 по сезону 1009.3 988.5 +0.2
09 15.03 Ю 5 20 км ясно +7.1 -3.8 46 +4 +8 тепло 1008.3 988.0
12 15.03 ЮЗ 4 20 км 6/6 1000 м
[Sc]
+8.0 -3.5 44 +5 +7 тепло 1006.9 986.7
15 15.03 Ю 3 20 км 3/3 1000 м
[Sc]
+8.0 -2.4 48 +6 +6 тепло 1006.3 986.1
18 15.03 Ю 2 20 км ясно +3.4 -2.9 63 +1 +1 по сезону 1006.8 986.3 +9.4
21 15.03 Ю 2 20 км 8/0
[Ac trans]
+1.8 -2.9 71 -1 -1 по сезону 1006.3 985.7
00 16.03 ЮЗ 5 20 км 3/0
[Ci fib]
+3.1 -2.9 65 -2 -2 по сезону 1004.3 983.8
03 16.03 Ю 3 20 км ясно +0.7 -3.2 75 -4 -4 по сезону 1002.1 981.5
06 16.03 Ю 2 20 км 8/0
[Ac trans]
+1.7 -1.7 78 -1 -0 по сезону 1000.1 979.6 +0.1
09 16.03 ЮЗ 5 20 км слаб. дождь 10/10 500 м
[Sc]
+4.1 +0.5 77 -1 -1 по сезону 998.2 977.9
12 16.03 З 3 4000 м слаб. дождь 10/10 210 м
[Frnb Ns]
+2.2 +1.2 93 -2 -2 прохладно 997.7 977.3
15 16.03 З 2 20 км в посл. час ливневой дождь 8/6 540 м
[Cb calv Ac trans]
+6.0 +4.2 88 +4 +4 по сезону 997.1 977.0
18 16.03 З 4 20 км {ливн. осадки, дождь} 8/8 800 м
[Sc]
+4.6 +2.1 84 0 0 по сезону 999.4 979.1 +6.1 4
21 16.03 СЗ 4 10 км в посл. час ливневой дождь 10/9 450 м
[Cb cap Ac und]
+4.0 +2.3 89 -1 -1 по сезону 1001.7 981.3
00 17.03 СЗ 4 20 км {ливн. осадки} 10/10 480 м
[Sc]
+4.3 +1.5 82 0 0 по сезону 1004.0 983.6
03 17.03 С 3 20 км 10/10 630 м
[Sc]
+3.8 +0.1 77 0 0 по сезону 1006.3 985.8
06 17.03 СЗ 3 20 км 10/10 700 м
[Sc]
+4.0 -0.9 70 +1 +1 по сезону 1009.0 988.5 +3.6 2
09 17.03 СЗ 3 20 км 9/9 700 м
[Cb cap]
+5.3 -0.5 66 +2 +3 по сезону 1011.1 990.6
12 17.03 З 3 20 км 6/6 1000 м
[Sc diur, vesp]
+9.2 -1.0 49 +7 +10 тепло 1011.3 991.1
15 17.03 З 3 20 км 6/4 1000 м
[Cu Sc Ci sp]
+10.8 -1.0 44 +9 +10 тепло 1011.7 991.6
18 17.03 Ю 2 20 км 6/0
[Ac trans Ci sp]
+5.1 +0.2 71 +3 +3 по сезону 1013.5 993.0 +11.1
21 17.03 Ю 1 10 км ясно +2.2 -0.2 84 +1 +1 по сезону 1014.7 993.9
00 18.03 Ю 2 4000 м дымка 8/0
[Ac trans Ci sp]
+1.8 +0.2 89 -2 -2 по сезону 1014.8 994.0
03 18.03 Ю 3 4000 м дымка 8/0
[Ac trans]
+2.2 +0.6 89 -2 -2 по сезону 1014.9 994.1
06 18.03 Ю 2 20 км 6/0
[Cs]
+4.4 +0.8 77 +2 +4 тепло 1015.1 994.5 +0.7
09 18.03 Ю 4 20 км 3/0
[Ci fib]
+12.9 +3.3 52 +11 +17 тепло 1014.3 994.3
12 18.03 Ю 6 20 км 6/0
[Ci]
+17.1 +3.0 39 +16 +19 тепло 1012.8 993.1
15 18.03 ЮЗ 5 20 км 9/0
[Ac As]
+16.6 +4.9 46 +16 +16 тепло 1012.5 992.8
18 18.03 Ю 6 20 км 10/0
[Ac As]
+14.2 +4.3 51 +12 +12 тепло 1014.0 994.1 +18.1
21 18.03 ЮЗ 4 20 км 6/0
[Ac trans]
+10.5 +2.0 56 +8 +8 тепло 1016.4 996.2
00 19.03 ЮЗ 4 20 км 9/0
[As trans]
+8.0 -0.4 55 +5 +5 тепло 1017.3 996.9
03 19.03 ЮЗ 2 10 км в посл. час дождь 9/0
[Ac As]
+5.1 +1.9 80 +3 +3 тепло 1018.4 997.8
06 19.03 ЮЗ 2 10 км {ливн. осадки, дождь} 10/10 700 м
[Sc]
+4.7 +3.2 90 +2 +2 тепло 1020.5 999.8 +4.5 4

 

Местоположение метеостанции Киев (город Киев, Украина): широта 50.40 долгота 30.57 высота над уровнем моря 167 м.

В архиве по умолчанию представлена погода в Киеве за последнюю неделю. Архивные данные за месяц целиком и за предыдущие месяцы, начиная с января 2011 года, Вы можете получить, выбрав интересующий диапазон дат из раскрывающегося списка и нажав кнопку "Ввод!".


*Определитесь, кто Вы:
робот инопланетянин человек

Внимание! Время в таблицах - всемирное. Для получения местного времени необходимо прибавить поправку, которая равна 2 ч.

Смотрите также архив погоды в соседних городах и на ближайших метеорологических станциях:

Погода в Вышгороде (Киевская область, Украина) (21 км)
Погода в Борисполе (Киевская область, Украина) (29 км)
Погода в Барышевке (Киевская область, Украина) (54 км)
Погода в Фастове (Киевская область, Украина) (58 км)
Погода в Остере (Черниговская область, Украина) (65 км)
Погода в Тетереве (Киевская область, Украина) (78 км)
Погода в Белой Церкви (Киевская область, Украина) (79 км)
Погода в Мироновке (Киевская область, Украина) (87 км)
Погода в Яготине (Киевская область, Украина) (90 км)
Погода в Чернобыле (Киевская область, Украина) (101 км)

Пояснения к столбцам:

Ветер - указаны скорость ветра в м/с - средняя за 10 мин, порывы в срок и между сроками (в фигурных скобках) и направление, откуда дует ветер: С - северный, СВ - северо-восточный, В - восточный, ЮВ - юго-восточный, Ю - южный, ЮЗ - юго-западный, З - западный, СЗ - северо-западный.
Видимость - горизонтальная дальность видимости в метрах или километрах. При видимости от 1 до 10 км при отсутствии осадков обычно наблюдается дымка, при ухудшении видимости до 1 км и менее - туман. В сухую погоду видимость может ухудшаться дымом, пылью или мглою.
Явления - указаны атмосферные явления, наблюдавшиеся в срок или в последний час перед сроком; фигурными скобками обозначены явления, наблюдавшиеся между сроками (за 1-3 часа до срока); квадратными скобками обозначены град или гололедные отложения с указанием их диаметра в мм.
Облачность - указаны через наклонную черту общая и нижняя облачность в баллах и высота нижней границы облаков в метрах; квадратными скобками обозначены формы облаков: Ci - перистые, Cs - перисто-слоистые, Cc - перисто-кучевые, Ac - высококучевые, As - высокослоистые, Sc - слоисто-кучевые, Ns - слоисто-дождевые, Cu - кучевые, Cb - кучево-дождевые. Подробнее классификацию облаков см. в Атласе облаков (PDF).
T - Температура воздуха - температура, измеренная на высоте 2 м над землей.
Td - Температура точки росы - температура, при понижении до которой содержащийся в воздухе водяной пар достигнет насыщения.
f - Относительная влажность воздуха - влажноcть воздуха, измеренная на высоте 2 м над землей.
Te - Эффективная температура - температура, которую ощущает одетый по сезону человек в тени. Характеристика душности погоды. При расчете учитывается влияние влажности воздуха и скорости ветра на теплоощущения человека.
Tes - Эффективная температура на солнце - температура, которую ощущает человек, с поправкой на солнечный нагрев. Характеристика знойности погоды. Зависит от высоты солнца над горизонтом, облачности и скорости ветра. Ночью, в пасмурную погоду, а также при ветре 12 м/с и более поправка равна нулю.
P - Атмосферное давление - приведенное к уровню моря атмосферное давление.
Po - Атмосферное давление - измеренное на уровне метеостанции атмосферное давление.
Tmin - Минимальная температура - минимум температуры воздуха на высоте 2 м над землей.
Tmax - Максимальная температура - максимум температуры воздуха на высоте 2 м над землей.
R - Количество осадков - Количество выпавших осадков за период времени, мм. При наведении курсора мыши на число - период времени, за который выпало указанное количество осадков.
R24 - Количество осадков - Количество выпавших осадков за 24 часа, мм.
S - Снежный покров - Высота снежного покрова, см. При наведении курсора мыши на число - состояние снежного покрова и степень покрытия местности в баллах.